<?xml version="1.0"?>
<gpx xmlns="http://www.topografix.com/GPX/1/1" xmlns:xsi="http://www.w3.org/2001/XMLSchema-instance" version="1.1" creator="GPX RubyGem 1.0.0 -- http://dougfales.github.io/gpx/" xsi:schemaLocation="http://www.topografix.com/GPX/1/1 http://www.topografix.com/GPX/1/1/gpx.xsd">
  <metadata>
    <name/>
    <time>2026-05-08T07:27:17+00:00</time>
    <bound minlat="90.0" minlon="180.0" maxlat="-90.0" maxlon="-180.0"/>
  </metadata>
  <trk>
    <name/>
    <trkseg>
      <trkpt lat="42.18731" lon="2.022923">
        <time>1970-01-01T00:00:00+00:00</time>
        <ele>1071.0</ele>
      </trkpt>
      <trkpt lat="42.187317" lon="2.02289">
        <time>1970-01-01T00:00:00+00:00</time>
        <ele>1071.0</ele>
      </trkpt>
      <trkpt lat="42.187319" lon="2.022635">
        <time>1970-01-01T00:00:00+00:00</time>
        <ele>1068.0</ele>
      </trkpt>
      <trkpt lat="42.187157" lon="2.021797">
        <time>1970-01-01T00:00:00+00:00</time>
        <ele>1062.0</ele>
      </trkpt>
      <trkpt lat="42.187153" lon="2.021562">
        <time>1970-01-01T00:00:00+00:00</time>
        <ele>1063.0</ele>
      </trkpt>
      <trkpt lat="42.187206" lon="2.020945">
        <time>1970-01-01T00:00:00+00:00</time>
        <ele>1066.0</ele>
      </trkpt>
      <trkpt lat="42.187191" lon="2.020685">
        <time>1970-01-01T00:00:00+00:00</time>
        <ele>1065.0</ele>
      </trkpt>
      <trkpt lat="42.186655" lon="2.018758">
        <time>1970-01-01T00:00:00+00:00</time>
        <ele>1054.0</ele>
      </trkpt>
      <trkpt lat="42.186538" lon="2.018538">
        <time>1970-01-01T00:00:00+00:00</time>
        <ele>1055.0</ele>
      </trkpt>
      <trkpt lat="42.18561" lon="2.017565">
        <time>1970-01-01T00:00:00+00:00</time>
        <ele>1063.0</ele>
      </trkpt>
      <trkpt lat="42.185486" lon="2.017344">
        <time>1970-01-01T00:00:00+00:00</time>
        <ele>1064.0</ele>
      </trkpt>
      <trkpt lat="42.185055" lon="2.016349">
        <time>1970-01-01T00:00:00+00:00</time>
        <ele>1064.0</ele>
      </trkpt>
      <trkpt lat="42.184928" lon="2.015996">
        <time>1970-01-01T00:00:00+00:00</time>
        <ele>1068.0</ele>
      </trkpt>
      <trkpt lat="42.184873" lon="2.015764">
        <time>1970-01-01T00:00:00+00:00</time>
        <ele>1070.0</ele>
      </trkpt>
      <trkpt lat="42.184829" lon="2.015476">
        <time>1970-01-01T00:00:00+00:00</time>
        <ele>1072.0</ele>
      </trkpt>
      <trkpt lat="42.184802" lon="2.015145">
        <time>1970-01-01T00:00:00+00:00</time>
        <ele>1076.0</ele>
      </trkpt>
      <trkpt lat="42.184831" lon="2.0148">
        <time>1970-01-01T00:00:00+00:00</time>
        <ele>1080.0</ele>
      </trkpt>
      <trkpt lat="42.185031" lon="2.013971">
        <time>1970-01-01T00:00:00+00:00</time>
        <ele>1088.0</ele>
      </trkpt>
      <trkpt lat="42.185012" lon="2.01371">
        <time>1970-01-01T00:00:00+00:00</time>
        <ele>1088.0</ele>
      </trkpt>
      <trkpt lat="42.184923" lon="2.013484">
        <time>1970-01-01T00:00:00+00:00</time>
        <ele>1088.0</ele>
      </trkpt>
      <trkpt lat="42.184502" lon="2.012931">
        <time>1970-01-01T00:00:00+00:00</time>
        <ele>1091.0</ele>
      </trkpt>
      <trkpt lat="42.18438" lon="2.012606">
        <time>1970-01-01T00:00:00+00:00</time>
        <ele>1092.0</ele>
      </trkpt>
      <trkpt lat="42.184326" lon="2.012113">
        <time>1970-01-01T00:00:00+00:00</time>
        <ele>1096.0</ele>
      </trkpt>
      <trkpt lat="42.184327" lon="2.011298">
        <time>1970-01-01T00:00:00+00:00</time>
        <ele>1102.0</ele>
      </trkpt>
      <trkpt lat="42.184309" lon="2.011154">
        <time>1970-01-01T00:00:00+00:00</time>
        <ele>1102.0</ele>
      </trkpt>
      <trkpt lat="42.184222" lon="2.011017">
        <time>1970-01-01T00:00:00+00:00</time>
        <ele>1101.0</ele>
      </trkpt>
      <trkpt lat="42.184077" lon="2.010952">
        <time>1970-01-01T00:00:00+00:00</time>
        <ele>1101.0</ele>
      </trkpt>
      <trkpt lat="42.183916" lon="2.010966">
        <time>1970-01-01T00:00:00+00:00</time>
        <ele>1103.0</ele>
      </trkpt>
      <trkpt lat="42.183707" lon="2.011063">
        <time>1970-01-01T00:00:00+00:00</time>
        <ele>1105.0</ele>
      </trkpt>
      <trkpt lat="42.183522" lon="2.011227">
        <time>1970-01-01T00:00:00+00:00</time>
        <ele>1104.0</ele>
      </trkpt>
      <trkpt lat="42.182999" lon="2.012178">
        <time>1970-01-01T00:00:00+00:00</time>
        <ele>1102.0</ele>
      </trkpt>
      <trkpt lat="42.182814" lon="2.012303">
        <time>1970-01-01T00:00:00+00:00</time>
        <ele>1100.0</ele>
      </trkpt>
      <trkpt lat="42.182504" lon="2.012416">
        <time>1970-01-01T00:00:00+00:00</time>
        <ele>1095.0</ele>
      </trkpt>
      <trkpt lat="42.182498" lon="2.012323">
        <time>1970-01-01T00:00:00+00:00</time>
        <ele>1095.0</ele>
      </trkpt>
      <trkpt lat="42.182537" lon="2.012022">
        <time>1970-01-01T00:00:00+00:00</time>
        <ele>1097.0</ele>
      </trkpt>
      <trkpt lat="42.182592" lon="2.011934">
        <time>1970-01-01T00:00:00+00:00</time>
        <ele>1098.0</ele>
      </trkpt>
      <trkpt lat="42.182671" lon="2.011875">
        <time>1970-01-01T00:00:00+00:00</time>
        <ele>1098.0</ele>
      </trkpt>
      <trkpt lat="42.182939" lon="2.011814">
        <time>1970-01-01T00:00:00+00:00</time>
        <ele>1100.0</ele>
      </trkpt>
      <trkpt lat="42.183044" lon="2.011694">
        <time>1970-01-01T00:00:00+00:00</time>
        <ele>1102.0</ele>
      </trkpt>
      <trkpt lat="42.183049" lon="2.011621">
        <time>1970-01-01T00:00:00+00:00</time>
        <ele>1102.0</ele>
      </trkpt>
      <trkpt lat="42.183031" lon="2.01155">
        <time>1970-01-01T00:00:00+00:00</time>
        <ele>1102.0</ele>
      </trkpt>
      <trkpt lat="42.182968" lon="2.01149">
        <time>1970-01-01T00:00:00+00:00</time>
        <ele>1103.0</ele>
      </trkpt>
      <trkpt lat="42.182771" lon="2.011462">
        <time>1970-01-01T00:00:00+00:00</time>
        <ele>1103.0</ele>
      </trkpt>
      <trkpt lat="42.182699" lon="2.011424">
        <time>1970-01-01T00:00:00+00:00</time>
        <ele>1104.0</ele>
      </trkpt>
      <trkpt lat="42.182493" lon="2.011115">
        <time>1970-01-01T00:00:00+00:00</time>
        <ele>1114.0</ele>
      </trkpt>
      <trkpt lat="42.182388" lon="2.010904">
        <time>1970-01-01T00:00:00+00:00</time>
        <ele>1118.0</ele>
      </trkpt>
      <trkpt lat="42.182326" lon="2.010719">
        <time>1970-01-01T00:00:00+00:00</time>
        <ele>1118.0</ele>
      </trkpt>
      <trkpt lat="42.182349" lon="2.010579">
        <time>1970-01-01T00:00:00+00:00</time>
        <ele>1118.0</ele>
      </trkpt>
      <trkpt lat="42.182581" lon="2.009821">
        <time>1970-01-01T00:00:00+00:00</time>
        <ele>1118.0</ele>
      </trkpt>
      <trkpt lat="42.182555" lon="2.009641">
        <time>1970-01-01T00:00:00+00:00</time>
        <ele>1116.0</ele>
      </trkpt>
      <trkpt lat="42.182384" lon="2.009128">
        <time>1970-01-01T00:00:00+00:00</time>
        <ele>1115.0</ele>
      </trkpt>
      <trkpt lat="42.182206" lon="2.008947">
        <time>1970-01-01T00:00:00+00:00</time>
        <ele>1112.0</ele>
      </trkpt>
      <trkpt lat="42.181959" lon="2.008758">
        <time>1970-01-01T00:00:00+00:00</time>
        <ele>1108.0</ele>
      </trkpt>
      <trkpt lat="42.181696" lon="2.008676">
        <time>1970-01-01T00:00:00+00:00</time>
        <ele>1103.0</ele>
      </trkpt>
      <trkpt lat="42.181585" lon="2.008665">
        <time>1970-01-01T00:00:00+00:00</time>
        <ele>1102.0</ele>
      </trkpt>
      <trkpt lat="42.181376" lon="2.008322">
        <time>1970-01-01T00:00:00+00:00</time>
        <ele>1100.0</ele>
      </trkpt>
      <trkpt lat="42.181347" lon="2.008156">
        <time>1970-01-01T00:00:00+00:00</time>
        <ele>1099.0</ele>
      </trkpt>
      <trkpt lat="42.181374" lon="2.008044">
        <time>1970-01-01T00:00:00+00:00</time>
        <ele>1099.0</ele>
      </trkpt>
      <trkpt lat="42.181427" lon="2.007929">
        <time>1970-01-01T00:00:00+00:00</time>
        <ele>1099.0</ele>
      </trkpt>
      <trkpt lat="42.181479" lon="2.007863">
        <time>1970-01-01T00:00:00+00:00</time>
        <ele>1099.0</ele>
      </trkpt>
      <trkpt lat="42.181562" lon="2.007838">
        <time>1970-01-01T00:00:00+00:00</time>
        <ele>1101.0</ele>
      </trkpt>
      <trkpt lat="42.181627" lon="2.007784">
        <time>1970-01-01T00:00:00+00:00</time>
        <ele>1102.0</ele>
      </trkpt>
      <trkpt lat="42.181676" lon="2.007697">
        <time>1970-01-01T00:00:00+00:00</time>
        <ele>1103.0</ele>
      </trkpt>
      <trkpt lat="42.181807" lon="2.007375">
        <time>1970-01-01T00:00:00+00:00</time>
        <ele>1102.0</ele>
      </trkpt>
      <trkpt lat="42.181913" lon="2.006975">
        <time>1970-01-01T00:00:00+00:00</time>
        <ele>1096.0</ele>
      </trkpt>
      <trkpt lat="42.181955" lon="2.006914">
        <time>1970-01-01T00:00:00+00:00</time>
        <ele>1097.0</ele>
      </trkpt>
      <trkpt lat="42.182034" lon="2.0068">
        <time>1970-01-01T00:00:00+00:00</time>
        <ele>1097.0</ele>
      </trkpt>
      <trkpt lat="42.18229" lon="2.006581">
        <time>1970-01-01T00:00:00+00:00</time>
        <ele>1103.0</ele>
      </trkpt>
      <trkpt lat="42.182393" lon="2.006424">
        <time>1970-01-01T00:00:00+00:00</time>
        <ele>1102.0</ele>
      </trkpt>
      <trkpt lat="42.182441" lon="2.006319">
        <time>1970-01-01T00:00:00+00:00</time>
        <ele>1100.0</ele>
      </trkpt>
      <trkpt lat="42.182435" lon="2.006216">
        <time>1970-01-01T00:00:00+00:00</time>
        <ele>1097.0</ele>
      </trkpt>
      <trkpt lat="42.182402" lon="2.006113">
        <time>1970-01-01T00:00:00+00:00</time>
        <ele>1094.0</ele>
      </trkpt>
      <trkpt lat="42.18229" lon="2.00607">
        <time>1970-01-01T00:00:00+00:00</time>
        <ele>1091.0</ele>
      </trkpt>
      <trkpt lat="42.182202" lon="2.006075">
        <time>1970-01-01T00:00:00+00:00</time>
        <ele>1089.0</ele>
      </trkpt>
      <trkpt lat="42.181933" lon="2.006253">
        <time>1970-01-01T00:00:00+00:00</time>
        <ele>1085.0</ele>
      </trkpt>
      <trkpt lat="42.181644" lon="2.006079">
        <time>1970-01-01T00:00:00+00:00</time>
        <ele>1082.0</ele>
      </trkpt>
      <trkpt lat="42.181197" lon="2.00602">
        <time>1970-01-01T00:00:00+00:00</time>
        <ele>1082.0</ele>
      </trkpt>
      <trkpt lat="42.181044" lon="2.006095">
        <time>1970-01-01T00:00:00+00:00</time>
        <ele>1080.0</ele>
      </trkpt>
      <trkpt lat="42.180841" lon="2.00631">
        <time>1970-01-01T00:00:00+00:00</time>
        <ele>1077.0</ele>
      </trkpt>
      <trkpt lat="42.180791" lon="2.006255">
        <time>1970-01-01T00:00:00+00:00</time>
        <ele>1077.0</ele>
      </trkpt>
      <trkpt lat="42.180784" lon="2.006167">
        <time>1970-01-01T00:00:00+00:00</time>
        <ele>1077.0</ele>
      </trkpt>
      <trkpt lat="42.180808" lon="2.006044">
        <time>1970-01-01T00:00:00+00:00</time>
        <ele>1079.0</ele>
      </trkpt>
      <trkpt lat="42.180887" lon="2.0059">
        <time>1970-01-01T00:00:00+00:00</time>
        <ele>1082.0</ele>
      </trkpt>
      <trkpt lat="42.180974" lon="2.005679">
        <time>1970-01-01T00:00:00+00:00</time>
        <ele>1085.0</ele>
      </trkpt>
      <trkpt lat="42.18106" lon="2.005269">
        <time>1970-01-01T00:00:00+00:00</time>
        <ele>1088.0</ele>
      </trkpt>
      <trkpt lat="42.181049" lon="2.004918">
        <time>1970-01-01T00:00:00+00:00</time>
        <ele>1089.0</ele>
      </trkpt>
      <trkpt lat="42.180922" lon="2.004821">
        <time>1970-01-01T00:00:00+00:00</time>
        <ele>1089.0</ele>
      </trkpt>
      <trkpt lat="42.180711" lon="2.004811">
        <time>1970-01-01T00:00:00+00:00</time>
        <ele>1092.0</ele>
      </trkpt>
      <trkpt lat="42.180584" lon="2.004836">
        <time>1970-01-01T00:00:00+00:00</time>
        <ele>1094.0</ele>
      </trkpt>
      <trkpt lat="42.180453" lon="2.004934">
        <time>1970-01-01T00:00:00+00:00</time>
        <ele>1096.0</ele>
      </trkpt>
      <trkpt lat="42.180374" lon="2.00512">
        <time>1970-01-01T00:00:00+00:00</time>
        <ele>1096.0</ele>
      </trkpt>
      <trkpt lat="42.180375" lon="2.005231">
        <time>1970-01-01T00:00:00+00:00</time>
        <ele>1094.0</ele>
      </trkpt>
      <trkpt lat="42.180274" lon="2.005428">
        <time>1970-01-01T00:00:00+00:00</time>
        <ele>1093.0</ele>
      </trkpt>
      <trkpt lat="42.179807" lon="2.00578">
        <time>1970-01-01T00:00:00+00:00</time>
        <ele>1089.0</ele>
      </trkpt>
      <trkpt lat="42.179666" lon="2.005838">
        <time>1970-01-01T00:00:00+00:00</time>
        <ele>1087.0</ele>
      </trkpt>
      <trkpt lat="42.179409" lon="2.005818">
        <time>1970-01-01T00:00:00+00:00</time>
        <ele>1087.0</ele>
      </trkpt>
      <trkpt lat="42.179232" lon="2.005842">
        <time>1970-01-01T00:00:00+00:00</time>
        <ele>1086.0</ele>
      </trkpt>
      <trkpt lat="42.179468" lon="2.006241">
        <time>1970-01-01T00:00:00+00:00</time>
        <ele>1078.0</ele>
      </trkpt>
      <trkpt lat="42.179759" lon="2.006645">
        <time>1970-01-01T00:00:00+00:00</time>
        <ele>1072.0</ele>
      </trkpt>
      <trkpt lat="42.179856" lon="2.006654">
        <time>1970-01-01T00:00:00+00:00</time>
        <ele>1072.0</ele>
      </trkpt>
      <trkpt lat="42.179926" lon="2.006711">
        <time>1970-01-01T00:00:00+00:00</time>
        <ele>1071.0</ele>
      </trkpt>
      <trkpt lat="42.180066" lon="2.006706">
        <time>1970-01-01T00:00:00+00:00</time>
        <ele>1071.0</ele>
      </trkpt>
      <trkpt lat="42.180262" lon="2.006741">
        <time>1970-01-01T00:00:00+00:00</time>
        <ele>1071.0</ele>
      </trkpt>
      <trkpt lat="42.180347" lon="2.006801">
        <time>1970-01-01T00:00:00+00:00</time>
        <ele>1071.0</ele>
      </trkpt>
      <trkpt lat="42.18045" lon="2.006783">
        <time>1970-01-01T00:00:00+00:00</time>
        <ele>1072.0</ele>
      </trkpt>
      <trkpt lat="42.180546" lon="2.006903">
        <time>1970-01-01T00:00:00+00:00</time>
        <ele>1074.0</ele>
      </trkpt>
      <trkpt lat="42.18062" lon="2.006964">
        <time>1970-01-01T00:00:00+00:00</time>
        <ele>1076.0</ele>
      </trkpt>
      <trkpt lat="42.180648" lon="2.007056">
        <time>1970-01-01T00:00:00+00:00</time>
        <ele>1078.0</ele>
      </trkpt>
      <trkpt lat="42.180604" lon="2.007216">
        <time>1970-01-01T00:00:00+00:00</time>
        <ele>1079.0</ele>
      </trkpt>
      <trkpt lat="42.180513" lon="2.007337">
        <time>1970-01-01T00:00:00+00:00</time>
        <ele>1079.0</ele>
      </trkpt>
      <trkpt lat="42.180513" lon="2.007337">
        <time>1970-01-01T00:00:00+00:00</time>
        <ele>1079.0</ele>
      </trkpt>
      <trkpt lat="42.180604" lon="2.007216">
        <time>1970-01-01T00:00:00+00:00</time>
        <ele>1079.0</ele>
      </trkpt>
      <trkpt lat="42.180648" lon="2.007056">
        <time>1970-01-01T00:00:00+00:00</time>
        <ele>1078.0</ele>
      </trkpt>
      <trkpt lat="42.18062" lon="2.006964">
        <time>1970-01-01T00:00:00+00:00</time>
        <ele>1076.0</ele>
      </trkpt>
      <trkpt lat="42.180546" lon="2.006903">
        <time>1970-01-01T00:00:00+00:00</time>
        <ele>1074.0</ele>
      </trkpt>
      <trkpt lat="42.18045" lon="2.006783">
        <time>1970-01-01T00:00:00+00:00</time>
        <ele>1072.0</ele>
      </trkpt>
      <trkpt lat="42.180347" lon="2.006801">
        <time>1970-01-01T00:00:00+00:00</time>
        <ele>1071.0</ele>
      </trkpt>
      <trkpt lat="42.180262" lon="2.006741">
        <time>1970-01-01T00:00:00+00:00</time>
        <ele>1071.0</ele>
      </trkpt>
      <trkpt lat="42.180066" lon="2.006706">
        <time>1970-01-01T00:00:00+00:00</time>
        <ele>1071.0</ele>
      </trkpt>
      <trkpt lat="42.179926" lon="2.006711">
        <time>1970-01-01T00:00:00+00:00</time>
        <ele>1071.0</ele>
      </trkpt>
      <trkpt lat="42.179856" lon="2.006654">
        <time>1970-01-01T00:00:00+00:00</time>
        <ele>1072.0</ele>
      </trkpt>
      <trkpt lat="42.179759" lon="2.006645">
        <time>1970-01-01T00:00:00+00:00</time>
        <ele>1072.0</ele>
      </trkpt>
      <trkpt lat="42.179468" lon="2.006241">
        <time>1970-01-01T00:00:00+00:00</time>
        <ele>1078.0</ele>
      </trkpt>
      <trkpt lat="42.179232" lon="2.005842">
        <time>1970-01-01T00:00:00+00:00</time>
        <ele>1086.0</ele>
      </trkpt>
      <trkpt lat="42.179409" lon="2.005818">
        <time>1970-01-01T00:00:00+00:00</time>
        <ele>1087.0</ele>
      </trkpt>
      <trkpt lat="42.179666" lon="2.005838">
        <time>1970-01-01T00:00:00+00:00</time>
        <ele>1087.0</ele>
      </trkpt>
      <trkpt lat="42.179807" lon="2.00578">
        <time>1970-01-01T00:00:00+00:00</time>
        <ele>1089.0</ele>
      </trkpt>
      <trkpt lat="42.180274" lon="2.005428">
        <time>1970-01-01T00:00:00+00:00</time>
        <ele>1093.0</ele>
      </trkpt>
      <trkpt lat="42.180375" lon="2.005231">
        <time>1970-01-01T00:00:00+00:00</time>
        <ele>1094.0</ele>
      </trkpt>
      <trkpt lat="42.180374" lon="2.00512">
        <time>1970-01-01T00:00:00+00:00</time>
        <ele>1096.0</ele>
      </trkpt>
      <trkpt lat="42.180453" lon="2.004934">
        <time>1970-01-01T00:00:00+00:00</time>
        <ele>1096.0</ele>
      </trkpt>
      <trkpt lat="42.180584" lon="2.004836">
        <time>1970-01-01T00:00:00+00:00</time>
        <ele>1094.0</ele>
      </trkpt>
      <trkpt lat="42.180711" lon="2.004811">
        <time>1970-01-01T00:00:00+00:00</time>
        <ele>1092.0</ele>
      </trkpt>
      <trkpt lat="42.180922" lon="2.004821">
        <time>1970-01-01T00:00:00+00:00</time>
        <ele>1089.0</ele>
      </trkpt>
      <trkpt lat="42.181049" lon="2.004918">
        <time>1970-01-01T00:00:00+00:00</time>
        <ele>1089.0</ele>
      </trkpt>
      <trkpt lat="42.18106" lon="2.005269">
        <time>1970-01-01T00:00:00+00:00</time>
        <ele>1088.0</ele>
      </trkpt>
      <trkpt lat="42.180974" lon="2.005679">
        <time>1970-01-01T00:00:00+00:00</time>
        <ele>1085.0</ele>
      </trkpt>
      <trkpt lat="42.180887" lon="2.0059">
        <time>1970-01-01T00:00:00+00:00</time>
        <ele>1082.0</ele>
      </trkpt>
      <trkpt lat="42.180808" lon="2.006044">
        <time>1970-01-01T00:00:00+00:00</time>
        <ele>1079.0</ele>
      </trkpt>
      <trkpt lat="42.180784" lon="2.006167">
        <time>1970-01-01T00:00:00+00:00</time>
        <ele>1077.0</ele>
      </trkpt>
      <trkpt lat="42.180791" lon="2.006255">
        <time>1970-01-01T00:00:00+00:00</time>
        <ele>1077.0</ele>
      </trkpt>
      <trkpt lat="42.180841" lon="2.00631">
        <time>1970-01-01T00:00:00+00:00</time>
        <ele>1077.0</ele>
      </trkpt>
      <trkpt lat="42.181044" lon="2.006095">
        <time>1970-01-01T00:00:00+00:00</time>
        <ele>1080.0</ele>
      </trkpt>
      <trkpt lat="42.181197" lon="2.00602">
        <time>1970-01-01T00:00:00+00:00</time>
        <ele>1082.0</ele>
      </trkpt>
      <trkpt lat="42.181644" lon="2.006079">
        <time>1970-01-01T00:00:00+00:00</time>
        <ele>1082.0</ele>
      </trkpt>
      <trkpt lat="42.181933" lon="2.006253">
        <time>1970-01-01T00:00:00+00:00</time>
        <ele>1085.0</ele>
      </trkpt>
      <trkpt lat="42.182202" lon="2.006075">
        <time>1970-01-01T00:00:00+00:00</time>
        <ele>1089.0</ele>
      </trkpt>
      <trkpt lat="42.18229" lon="2.00607">
        <time>1970-01-01T00:00:00+00:00</time>
        <ele>1091.0</ele>
      </trkpt>
      <trkpt lat="42.182402" lon="2.006113">
        <time>1970-01-01T00:00:00+00:00</time>
        <ele>1094.0</ele>
      </trkpt>
      <trkpt lat="42.182435" lon="2.006216">
        <time>1970-01-01T00:00:00+00:00</time>
        <ele>1097.0</ele>
      </trkpt>
      <trkpt lat="42.182441" lon="2.006319">
        <time>1970-01-01T00:00:00+00:00</time>
        <ele>1100.0</ele>
      </trkpt>
      <trkpt lat="42.182393" lon="2.006424">
        <time>1970-01-01T00:00:00+00:00</time>
        <ele>1102.0</ele>
      </trkpt>
      <trkpt lat="42.18229" lon="2.006581">
        <time>1970-01-01T00:00:00+00:00</time>
        <ele>1103.0</ele>
      </trkpt>
      <trkpt lat="42.182034" lon="2.0068">
        <time>1970-01-01T00:00:00+00:00</time>
        <ele>1097.0</ele>
      </trkpt>
      <trkpt lat="42.181955" lon="2.006914">
        <time>1970-01-01T00:00:00+00:00</time>
        <ele>1097.0</ele>
      </trkpt>
      <trkpt lat="42.181913" lon="2.006975">
        <time>1970-01-01T00:00:00+00:00</time>
        <ele>1096.0</ele>
      </trkpt>
      <trkpt lat="42.181807" lon="2.007375">
        <time>1970-01-01T00:00:00+00:00</time>
        <ele>1102.0</ele>
      </trkpt>
      <trkpt lat="42.181676" lon="2.007697">
        <time>1970-01-01T00:00:00+00:00</time>
        <ele>1103.0</ele>
      </trkpt>
      <trkpt lat="42.181627" lon="2.007784">
        <time>1970-01-01T00:00:00+00:00</time>
        <ele>1102.0</ele>
      </trkpt>
      <trkpt lat="42.181562" lon="2.007838">
        <time>1970-01-01T00:00:00+00:00</time>
        <ele>1101.0</ele>
      </trkpt>
      <trkpt lat="42.181479" lon="2.007863">
        <time>1970-01-01T00:00:00+00:00</time>
        <ele>1099.0</ele>
      </trkpt>
      <trkpt lat="42.181427" lon="2.007929">
        <time>1970-01-01T00:00:00+00:00</time>
        <ele>1099.0</ele>
      </trkpt>
      <trkpt lat="42.181374" lon="2.008044">
        <time>1970-01-01T00:00:00+00:00</time>
        <ele>1099.0</ele>
      </trkpt>
      <trkpt lat="42.181347" lon="2.008156">
        <time>1970-01-01T00:00:00+00:00</time>
        <ele>1099.0</ele>
      </trkpt>
      <trkpt lat="42.181376" lon="2.008322">
        <time>1970-01-01T00:00:00+00:00</time>
        <ele>1100.0</ele>
      </trkpt>
      <trkpt lat="42.181585" lon="2.008665">
        <time>1970-01-01T00:00:00+00:00</time>
        <ele>1102.0</ele>
      </trkpt>
      <trkpt lat="42.181696" lon="2.008676">
        <time>1970-01-01T00:00:00+00:00</time>
        <ele>1103.0</ele>
      </trkpt>
      <trkpt lat="42.181959" lon="2.008758">
        <time>1970-01-01T00:00:00+00:00</time>
        <ele>1108.0</ele>
      </trkpt>
      <trkpt lat="42.182206" lon="2.008947">
        <time>1970-01-01T00:00:00+00:00</time>
        <ele>1112.0</ele>
      </trkpt>
      <trkpt lat="42.182384" lon="2.009128">
        <time>1970-01-01T00:00:00+00:00</time>
        <ele>1115.0</ele>
      </trkpt>
      <trkpt lat="42.182555" lon="2.009641">
        <time>1970-01-01T00:00:00+00:00</time>
        <ele>1116.0</ele>
      </trkpt>
      <trkpt lat="42.182581" lon="2.009821">
        <time>1970-01-01T00:00:00+00:00</time>
        <ele>1118.0</ele>
      </trkpt>
      <trkpt lat="42.182349" lon="2.010579">
        <time>1970-01-01T00:00:00+00:00</time>
        <ele>1118.0</ele>
      </trkpt>
      <trkpt lat="42.182326" lon="2.010719">
        <time>1970-01-01T00:00:00+00:00</time>
        <ele>1118.0</ele>
      </trkpt>
      <trkpt lat="42.182388" lon="2.010904">
        <time>1970-01-01T00:00:00+00:00</time>
        <ele>1118.0</ele>
      </trkpt>
      <trkpt lat="42.182493" lon="2.011115">
        <time>1970-01-01T00:00:00+00:00</time>
        <ele>1114.0</ele>
      </trkpt>
      <trkpt lat="42.182699" lon="2.011424">
        <time>1970-01-01T00:00:00+00:00</time>
        <ele>1104.0</ele>
      </trkpt>
      <trkpt lat="42.182771" lon="2.011462">
        <time>1970-01-01T00:00:00+00:00</time>
        <ele>1103.0</ele>
      </trkpt>
      <trkpt lat="42.182968" lon="2.01149">
        <time>1970-01-01T00:00:00+00:00</time>
        <ele>1103.0</ele>
      </trkpt>
      <trkpt lat="42.183031" lon="2.01155">
        <time>1970-01-01T00:00:00+00:00</time>
        <ele>1102.0</ele>
      </trkpt>
      <trkpt lat="42.183049" lon="2.011621">
        <time>1970-01-01T00:00:00+00:00</time>
        <ele>1102.0</ele>
      </trkpt>
      <trkpt lat="42.183044" lon="2.011694">
        <time>1970-01-01T00:00:00+00:00</time>
        <ele>1102.0</ele>
      </trkpt>
      <trkpt lat="42.182939" lon="2.011814">
        <time>1970-01-01T00:00:00+00:00</time>
        <ele>1100.0</ele>
      </trkpt>
      <trkpt lat="42.182671" lon="2.011875">
        <time>1970-01-01T00:00:00+00:00</time>
        <ele>1098.0</ele>
      </trkpt>
      <trkpt lat="42.182592" lon="2.011934">
        <time>1970-01-01T00:00:00+00:00</time>
        <ele>1098.0</ele>
      </trkpt>
      <trkpt lat="42.182537" lon="2.012022">
        <time>1970-01-01T00:00:00+00:00</time>
        <ele>1097.0</ele>
      </trkpt>
      <trkpt lat="42.182498" lon="2.012323">
        <time>1970-01-01T00:00:00+00:00</time>
        <ele>1095.0</ele>
      </trkpt>
      <trkpt lat="42.182504" lon="2.012416">
        <time>1970-01-01T00:00:00+00:00</time>
        <ele>1095.0</ele>
      </trkpt>
      <trkpt lat="42.182814" lon="2.012303">
        <time>1970-01-01T00:00:00+00:00</time>
        <ele>1100.0</ele>
      </trkpt>
      <trkpt lat="42.182999" lon="2.012178">
        <time>1970-01-01T00:00:00+00:00</time>
        <ele>1102.0</ele>
      </trkpt>
      <trkpt lat="42.183522" lon="2.011227">
        <time>1970-01-01T00:00:00+00:00</time>
        <ele>1104.0</ele>
      </trkpt>
      <trkpt lat="42.183707" lon="2.011063">
        <time>1970-01-01T00:00:00+00:00</time>
        <ele>1105.0</ele>
      </trkpt>
      <trkpt lat="42.183916" lon="2.010966">
        <time>1970-01-01T00:00:00+00:00</time>
        <ele>1103.0</ele>
      </trkpt>
      <trkpt lat="42.184077" lon="2.010952">
        <time>1970-01-01T00:00:00+00:00</time>
        <ele>1101.0</ele>
      </trkpt>
      <trkpt lat="42.184222" lon="2.011017">
        <time>1970-01-01T00:00:00+00:00</time>
        <ele>1101.0</ele>
      </trkpt>
      <trkpt lat="42.184309" lon="2.011154">
        <time>1970-01-01T00:00:00+00:00</time>
        <ele>1102.0</ele>
      </trkpt>
      <trkpt lat="42.184327" lon="2.011298">
        <time>1970-01-01T00:00:00+00:00</time>
        <ele>1102.0</ele>
      </trkpt>
      <trkpt lat="42.184326" lon="2.012113">
        <time>1970-01-01T00:00:00+00:00</time>
        <ele>1096.0</ele>
      </trkpt>
      <trkpt lat="42.18438" lon="2.012606">
        <time>1970-01-01T00:00:00+00:00</time>
        <ele>1092.0</ele>
      </trkpt>
      <trkpt lat="42.184502" lon="2.012931">
        <time>1970-01-01T00:00:00+00:00</time>
        <ele>1091.0</ele>
      </trkpt>
      <trkpt lat="42.184923" lon="2.013484">
        <time>1970-01-01T00:00:00+00:00</time>
        <ele>1088.0</ele>
      </trkpt>
      <trkpt lat="42.185012" lon="2.01371">
        <time>1970-01-01T00:00:00+00:00</time>
        <ele>1088.0</ele>
      </trkpt>
      <trkpt lat="42.185031" lon="2.013971">
        <time>1970-01-01T00:00:00+00:00</time>
        <ele>1088.0</ele>
      </trkpt>
      <trkpt lat="42.184831" lon="2.0148">
        <time>1970-01-01T00:00:00+00:00</time>
        <ele>1080.0</ele>
      </trkpt>
      <trkpt lat="42.184802" lon="2.015145">
        <time>1970-01-01T00:00:00+00:00</time>
        <ele>1076.0</ele>
      </trkpt>
      <trkpt lat="42.184829" lon="2.015476">
        <time>1970-01-01T00:00:00+00:00</time>
        <ele>1072.0</ele>
      </trkpt>
      <trkpt lat="42.184873" lon="2.015764">
        <time>1970-01-01T00:00:00+00:00</time>
        <ele>1070.0</ele>
      </trkpt>
      <trkpt lat="42.184928" lon="2.015996">
        <time>1970-01-01T00:00:00+00:00</time>
        <ele>1068.0</ele>
      </trkpt>
      <trkpt lat="42.185055" lon="2.016349">
        <time>1970-01-01T00:00:00+00:00</time>
        <ele>1064.0</ele>
      </trkpt>
      <trkpt lat="42.185486" lon="2.017344">
        <time>1970-01-01T00:00:00+00:00</time>
        <ele>1064.0</ele>
      </trkpt>
      <trkpt lat="42.18561" lon="2.017565">
        <time>1970-01-01T00:00:00+00:00</time>
        <ele>1063.0</ele>
      </trkpt>
      <trkpt lat="42.186538" lon="2.018538">
        <time>1970-01-01T00:00:00+00:00</time>
        <ele>1055.0</ele>
      </trkpt>
      <trkpt lat="42.186655" lon="2.018758">
        <time>1970-01-01T00:00:00+00:00</time>
        <ele>1054.0</ele>
      </trkpt>
      <trkpt lat="42.187191" lon="2.020685">
        <time>1970-01-01T00:00:00+00:00</time>
        <ele>1065.0</ele>
      </trkpt>
      <trkpt lat="42.187206" lon="2.020945">
        <time>1970-01-01T00:00:00+00:00</time>
        <ele>1066.0</ele>
      </trkpt>
      <trkpt lat="42.187153" lon="2.021562">
        <time>1970-01-01T00:00:00+00:00</time>
        <ele>1063.0</ele>
      </trkpt>
      <trkpt lat="42.187157" lon="2.021797">
        <time>1970-01-01T00:00:00+00:00</time>
        <ele>1062.0</ele>
      </trkpt>
      <trkpt lat="42.187319" lon="2.022635">
        <time>1970-01-01T00:00:00+00:00</time>
        <ele>1068.0</ele>
      </trkpt>
      <trkpt lat="42.187317" lon="2.02289">
        <time>1970-01-01T00:00:00+00:00</time>
        <ele>1071.0</ele>
      </trkpt>
      <trkpt lat="42.18731" lon="2.022923">
        <time>1970-01-01T00:00:00+00:00</time>
        <ele>1071.0</ele>
      </trkpt>
    </trkseg>
  </trk>
</gpx>
